铱星星座 181星 (IRIDIUM 181)

导读

IRIDIUM 181是美国铱星星座的一颗通信卫星,于2023年5月20日发射入轨。铱星系统由近地轨道卫星组成,提供全球范围内的语音和数据通信服务,IRIDIUM 181承担着补充和增强星座通信覆盖能力的任务,延续了铱星网络可靠的全球移动通信服务,满足海上、航空等偏远地区通信需求。

Basic Information
目录编号:
56726
目录名称:
IRIDIUM 181
国际标识:
2023-068S
轨道中心:
EARTH
卫星名称:
铱星星座 181星
卫星全名:
铱星星座 181星 (IRIDIUM 181)
卫星状态:
在轨 (已飞行1123 天)
发射日期:
2023-05-20 UTC
国别 :
美国 (US)
星等 :
--
Orbit Information
数据来源 国际轨道数据 AOE轨道数据
星历时间 2026-06-16T12:55:27+0800
9小时前
查看轨道信息
2026-06-16T00:00:00+0800
22小时前
查看轨道信息
半长轴 7125.714km 7125.717km
偏心率 0.0002346 0.0002352
轨道倾角 86.450° 86.449°
近地点辐角 88.427° 94.655°
升交点赤经 57.201° 57.426°
平近点角 271.720° 349.247°
近地点 745.905km 745.904km
远地点 749.249km 749.256km
周期 99.771分钟 99.771分钟
每日圈数 14.433121 14.433112
Detailed Information
平衡模式:
三轴稳定
覆盖范围:
全球
运营商:
铱星通信公司
运营商所在国:
美国
制造商(研发单位):
阿莱尼亚宇航公司
制造商所在国:
意大利
使用方式:
暂无
Satellite Introduction
铱星(Iridium)是由共66个运作中的通信卫星组成的卫星通信系统。这个系统原本规划77个通信卫星,所以用原子序数为77的铱元素来命名。铱卫星允许人们使用手持型电子设备进行全球性的语音及数据通讯。该卫星仍在工作。
2D Orbit Map
3D Orbit Map
Orbit Altitude Analysis Chart
Orbit Inclination Analysis Chart
Orbit Comprehensive Analysis Chart
View Comprehensive Chart